Weather History for KFMN - May, 2013

Change the Weather History Date:

Wednesday, May 22, 2013

  Actual Average Record
Temperature  
Mean Temperature 65 °F -  
Max Temperature 86 °F 79 °F 96 °F (2005)
Min Temperature 44 °F 44 °F 30 °F (2002)
Growing Degree Days 15 (Base 50)    
Moisture  
Dew Point 20 °F    
Average Humidity 20    
Maximum Humidity 51    
Minimum Humidity 4    
Precipitation  
Precipitation 0.00 in - - ()
Sea Level Pressure  
Sea Level Pressure 29.77 in    
Wind  
Wind Speed 6 mph (ESE)    
Max Wind Speed 13 mph    
Max Gust Speed 20 mph    
Visibility 10 miles    
Events      
Averages and records for this station are not official NWS values.
T = Trace of Precipitation, MM = Missing Value Source: NWS Daily Summary

Daily Weather History Graph

Daily Weather History Graph

Search for Another Location

Airport or City:

Trip Planner

Search our weather history database for the weather conditions in past years. The results will help you decide how hot, cold, wet, or windy it might be!

Date:

Astronomy

May. 22, 2013 Rise Set
Actual Time 6:00 AM MDT 8:19 PM MDT
Civil Twilight 5:30 AM MDT 8:48 PM MDT
Nautical Twilight 4:54 AM MDT 9:25 PM MDT
Astronomical Twilight 4:15 AM MDT 10:04 PM MDT
Moon 5:48 PM MDT (5/22) 4:02 AM MDT (5/22)
Length of Visible Light 15h 18m
Length of Day
14h 19m
Waxing Gibbous, 92% of the Moon is Illuminated
May 22
Waxing Gibbous
May 24
Full
May 31
Last Quarter
Jun 8
New
Jun 16
First Quarter

Hourly Weather History & Observations

Time (MDT) Temp. Windchill Dew Point Humidity Pressure Visibility Wind Dir Wind Speed Gust Speed Precip Events Conditions
12:53 AM 51.1 °F - 24.1 °F 35% 29.82 in 10.0 mi ENE 4.6 mph - N/A   Clear
1:53 AM 48.0 °F - 24.1 °F 39% 29.82 in 10.0 mi East 4.6 mph - N/A   Clear
2:53 AM 48.0 °F - 24.1 °F 39% 29.82 in 10.0 mi ENE 8.1 mph - N/A   Clear
3:53 AM 45.0 °F 40.1 °F 24.1 °F 44% 29.82 in 10.0 mi NE 9.2 mph - N/A   Clear
4:53 AM 44.1 °F 42.5 °F 24.1 °F 45% 29.83 in 10.0 mi ENE 3.5 mph - N/A   Clear
5:53 AM 44.1 °F 39.5 °F 27.0 °F 51% 29.83 in 10.0 mi East 8.1 mph - N/A   Clear
6:53 AM 46.9 °F - 28.0 °F 48% 29.85 in 10.0 mi NE 5.8 mph - N/A   Clear
7:53 AM 52.0 °F - 27.0 °F 38% 29.85 in 10.0 mi ESE 8.1 mph - N/A   Clear
8:53 AM 59.0 °F - 28.9 °F 32% 29.84 in 10.0 mi East 6.9 mph - N/A   Clear
9:53 AM 64.9 °F - 23.0 °F 20% 29.84 in 10.0 mi ESE 6.9 mph - N/A   Clear
10:53 AM 71.1 °F - 24.1 °F 17% 29.83 in 10.0 mi SSE 5.8 mph - N/A   Clear
11:53 AM 73.9 °F - 21.0 °F 14% 29.81 in 10.0 mi Calm Calm - N/A   Clear
12:53 PM 80.1 °F - 19.0 °F 10% 29.78 in 10.0 mi Variable 3.5 mph - N/A   Clear
1:53 PM 81.0 °F - 16.0 °F 9% 29.76 in 10.0 mi SW 8.1 mph - N/A   Clear
2:53 PM 81.0 °F - 12.9 °F 8% 29.73 in 10.0 mi Variable 5.8 mph 18.4 mph N/A   Clear
3:53 PM 86.0 °F - 15.1 °F 7% 29.68 in 10.0 mi NNW 6.9 mph - N/A   Clear
4:53 PM 82.0 °F - 15.1 °F 8% 29.69 in 10.0 mi Calm Calm - N/A   Clear
5:53 PM 82.9 °F - 12.0 °F 7% 29.66 in 10.0 mi Variable 3.5 mph 17.3 mph N/A   Clear
6:53 PM 81.0 °F - 12.9 °F 8% 29.66 in 10.0 mi West 12.7 mph 19.6 mph N/A   Clear
7:53 PM 78.1 °F - 18.0 °F 10% 29.67 in 10.0 mi WSW 9.2 mph - N/A   Clear
8:53 PM 72.0 °F - 17.1 °F 12% 29.69 in 10.0 mi WSW 8.1 mph - N/A   Clear
9:53 PM 68.0 °F - 16.0 °F 14% 29.71 in 10.0 mi West 4.6 mph - N/A   Clear
10:53 PM 64.9 °F - 17.1 °F 16% 29.73 in 10.0 mi WSW 8.1 mph - N/A   Clear
11:53 PM 66.9 °F - 15.1 °F 14% 29.73 in 10.0 mi SW 10.4 mph - N/A   Clear